Location: Multiple Mirror Telescope
(31.6889°N, 110.8853°W)
Time: 10:19:27
(UTC-07:00)

Hubble Space Telescope - Pass Details

Date: 03 June 2024
Orbit: 511 x 515 km, 28.5° (Epoch: 14 June)

Event Time Altitude Azimuth Distance (km) Brightness Sun altitude
Rises 19:46:30 0° 269° (W) 2,614 5.4 -4.7°
Reaches altitude 10° 19:48:49 10° 261° (W) 1,727 4.2 -5.2°
Maximum altitude 19:52:33 40° 192° (SSW) 763 1.4 -5.9°
Drops below altitude 10° 19:56:18 10° 121° (ESE) 1,723 2.7 -6.5°
Enters shadow 19:56:40 - 120° (ESE) 1,859 2.8 -6.6°
